Regional Weather Roundup
Issued by NWS

Home | Current Version | Previous Version | Graphics & Text | Print | Product List | Glossary On
Versions: 1 2 3 4 5 6 7 8 9 10 11 12 13 14 15 16 17 18 19 20 21 22 23 24 25 26 27 28 29 30 31 32 33 34 35 36 37 38 39 40 41 42 43 44 45 46 47 48 49 50
000
ASUS43 KIND 250809
RWRIN

WEATHER ROUNDUP FOR INDIANA
NATIONAL WEATHER SERVICE INDIANAPOLIS IN
400 AM EDT FRI JUL 25 2014

NOTE: "FAIR" INDICATES FEW OR NO CLOUDS BELOW 12,000 FEET WITH NO
SIGNIFICANT WEATHER AND/OR OBSTRUCTIONS TO VISIBILITY.

* - STATION DOES NOT REPORT WEATHER SUCH AS PRECIPITATION OR FOG.

+ - STATION NOT QUALITY CONTROLLED BY THE NATIONAL WEATHER SERVICE.
    USE DATA WITH CAUTION...ESPECIALLY DEWPOINT AND RELATIVE
    HUMIDITY OBSERVATIONS.

INZ001>003-010>013-019-020-250900-
NORTHWEST INDIANA

CITY           SKY/WX    TMP DP  RH WIND       PRES   REMARKS
GARY /AIRPORT/ CLEAR     52  51  95 CALM      30.09R
KNOX *+        CLEAR     49  47  92 CALM      30.08R
LA PORTE +     CLEAR     47  47 100 CALM      30.10R
MICHIGAN CITY+ CLEAR     50  50 100 CALM      30.08R
MONTICELLO +   CLEAR     54  53  97 CALM      30.06S
RENSSELAER +   CLEAR     52  52 100 CALM      30.09R
VALPARAISO     CLEAR     50  49  96 CALM      30.09R

$$

LMZ046-743>745-250900-
SOUTHERN LAKE MICHIGAN

STATION/POSITION TIME  TEMP WIND        PRES
                       AIR  DIR/SP/G
                 (UTC) (F)  (DEG/KT/KT) (MB)
MICHIGAN CITY    0800   58  210/  1/  2   N/A

$$

INZ004-005-014>016-021>024-250900-
NORTH CENTRAL INDIANA

CITY           SKY/WX    TMP DP  RH WIND       PRES   REMARKS
GOSHEN         CLEAR     53  51  93 CALM      30.08R
LOGANSPORT +   CLEAR     50  48  93 CALM      30.07F
PERU/GRISSOM   CLEAR     54  54 100 SW3       30.07R
ROCHESTER +    CLEAR     54  52  94 CALM      30.08R
SOUTH BEND     CLEAR     54  49  83 CALM      30.09R
WARSAW +       CLEAR     52  52 100 CALM      30.07S

$$

INZ006>009-017-018-025>027-250900-
NORTHEAST INDIANA

CITY           SKY/WX    TMP DP  RH WIND       PRES   REMARKS
ANGOLA *+      PTCLDY    52  52 100 CALM      30.08R
AUBURN +       CLEAR     54  50  87 CALM      30.08S
FORT WAYNE     PTCLDY    56  51  84 CALM      30.08R
HUNTINGTON +   CLEAR     53  52  95 CALM      30.07R

$$

INZ028-029-035-036-043>045-051>053-250900-
WEST CENTRAL INDIANA

CITY           SKY/WX    TMP DP  RH WIND       PRES   REMARKS
GREENCASTLE +  CLEAR     54  52  94 CALM      30.08R
LAFAYETTE      CLEAR     54  53  97 CALM      30.08R FOG
TERRE HAUTE    FOG       53  50  89 CALM      30.08R VSB 3/4

$$

INZ030>032-037>040-046>048-054>057-064-065-250900-
CENTRAL INDIANA

CITY           SKY/WX    TMP DP  RH WIND       PRES   REMARKS
CP ATTERBURY + CLEAR     52  50  93 CALM      30.08S
INDIANAPOLIS   CLEAR     60  54  80 CALM      30.06S
-EAGLE CREEK   CLEAR     58  55  90 CALM      30.07R
KOKOMO *+      CLEAR     54  50  87 CALM      30.08R
MARION +       CLEAR     51  51  97 CALM      30.08R
MT COMFORT *+    N/A     52 N/A N/A CALM      30.07S VSB 3/4
SHELBYVILLE    CLEAR     56  52  86 CALM      30.06S
ZIONSVILLE +   CLEAR     54  51  90 CALM      30.08S

$$

INZ033-034-041-042-049-050-058-059-250900-
EAST CENTRAL INDIANA

CITY           SKY/WX    TMP DP  RH WIND       PRES   REMARKS
MUNCIE         CLEAR     56  50  80 CALM      30.07S

$$

INZ060-061-067>069-081>083-085>088-250900-
SOUTHWEST INDIANA

CITY           SKY/WX    TMP DP  RH WIND       PRES   REMARKS
EVANSVILLE     CLEAR     60  56  86 CALM      30.07R
HUNTINGBURG *+ CLEAR     57  54  88 CALM      30.07S
WASHINGTON +   CLEAR     55  55 100 CALM      30.05F

$$

INZ062-063-066-070>080-084-089>092-250900-
SOUTH CENTRAL AND SOUTHEAST INDIANA

CITY           SKY/WX    TMP DP  RH WIND       PRES   REMARKS
BLOOMINGTON    CLEAR     54  52  93 CALM      30.08S
NORTH VERNON + CLEAR     54  54 100 CALM      30.09

$$




USA.gov is the U.S. government's official web portal to all federal, state and local government web resources and services.